Weather History for Gainesville, GA

Change the Weather History Date:

Friday, December 27, 2013

  Actual Average Record
Temperature  
Mean Temperature 42 °F 42 °F  
Max Temperature 52 °F 50 °F 69 °F (1987)
Min Temperature 32 °F 33 °F 8 °F (1983)
Degree Days  
Heating Degree Days 23 23  
Month to date heating degree days 491 567  
Since 1 July heating degree days 1104 1102  
Moisture  
Dew Point 22 °F    
Average Humidity 52    
Maximum Humidity 75    
Minimum Humidity 28    
Precipitation  
Precipitation 0.00 in 0.10 in 1.47 in (1938)
Month to date precipitation 8.42 4.14  
Snow  
Snow 0.00 in - - ()
Month to date snowfall 0.0  
Since 1 July snowfall 0.0  
Snow Depth 0.00 in    
Sea Level Pressure  
Sea Level Pressure 30.40 in    
Wind  
Wind Speed 4 mph (East)    
Max Wind Speed 12 mph    
Max Gust Speed 32 mph    
Visibility 10 miles    
Events      
T = Trace of Precipitation, MM = Missing Value Source: NWS Daily Summary

Daily Weather History Graph

Daily Weather History Graph

Search for Another Location

Airport:

Trip Planner

Search our weather history database for the weather conditions in past years. The results will help you decide how hot, cold, wet, or windy it might be!

Date:

Astronomy

Dec. 27, 2013 Rise Set
Actual Time 7:40 AM EST 5:33 PM EST
Civil Twilight 7:12 AM EST 6:00 PM EST
Nautical Twilight 6:40 AM EST 6:32 PM EST
Astronomical Twilight 6:10 AM EST 7:02 PM EST
Moon 2:19 AM EST (12/27) 1:35 PM EST (12/27)
Length of Visible Light 10h 48m
Length of Day
9h 52m
Waning Crescent, 28% of the Moon is Illuminated
Dec 27
Waning Crescent
Jan 1
New
Jan 7
First Quarter
Jan 15
Full
Jan 24
Last Quarter

Hourly Weather History & Observations

Time (EST) Temp. Windchill Dew Point Humidity Pressure Visibility Wind Dir Wind Speed Gust Speed Precip Events Conditions
12:53 AM 36.0 °F 33.3 °F 27.0 °F 70% 30.33 in 10.0 mi North 3.5 mph - N/A   Clear
1:53 AM 34.0 °F - 26.1 °F 73% 30.33 in 10.0 mi Calm Calm - N/A   Clear
2:53 AM 33.1 °F - 26.1 °F 75% 30.35 in 10.0 mi Calm Calm - N/A   Clear
3:53 AM 34.0 °F 31.0 °F 23.0 °F 64% 30.36 in 10.0 mi NE 3.5 mph - N/A   Clear
4:53 AM 36.0 °F 29.0 °F 23.0 °F 59% 30.36 in 10.0 mi East 9.2 mph - N/A   Clear
5:53 AM 35.1 °F 28.6 °F 23.0 °F 61% 30.38 in 10.0 mi East 8.1 mph - N/A   Clear
6:53 AM 35.1 °F 29.3 °F 21.9 °F 59% 30.40 in 10.0 mi ENE 6.9 mph - N/A   Clear
7:53 AM 35.1 °F 30.1 °F 21.0 °F 57% 30.44 in 10.0 mi ENE 5.8 mph - N/A   Clear
8:53 AM 36.0 °F 31.1 °F 21.0 °F 55% 30.45 in 10.0 mi ENE 5.8 mph - N/A   Clear
9:53 AM 39.0 °F 34.8 °F 19.9 °F 46% 30.48 in 10.0 mi ENE 5.8 mph - N/A   Clear
10:53 AM 42.1 °F 36.6 °F 17.1 °F 37% 30.48 in 10.0 mi East 9.2 mph - N/A   Clear
11:53 AM 44.1 °F 39.0 °F 17.1 °F 34% 30.46 in 10.0 mi East 9.2 mph - N/A   Clear
12:53 PM 48.0 °F - 19.0 °F 32% 30.42 in 10.0 mi East 5.8 mph - N/A   Clear
1:53 PM 48.9 °F - 19.0 °F 31% 30.40 in 10.0 mi Calm Calm - N/A   Clear
2:53 PM 51.1 °F - 19.0 °F 28% 30.38 in 10.0 mi Calm Calm - N/A   Clear
3:53 PM 50.0 °F - 19.9 °F 31% 30.39 in 10.0 mi Calm Calm - N/A   Clear
4:53 PM 50.0 °F - 21.0 °F 32% 30.38 in 10.0 mi SSE 3.5 mph - N/A   Clear
5:53 PM 45.0 °F - 23.0 °F 42% 30.39 in 10.0 mi Calm Calm - N/A   Clear
6:53 PM 42.1 °F - 21.9 °F 45% 30.40 in 10.0 mi Calm Calm - N/A   Clear
7:53 PM 44.1 °F 42.5 °F 23.0 °F 43% 30.41 in 10.0 mi SSE 3.5 mph - N/A   Clear
8:53 PM 39.9 °F 37.8 °F 24.1 °F 53% 30.43 in 10.0 mi SSE 3.5 mph - N/A   Clear
9:53 PM 37.9 °F - 25.0 °F 60% 30.42 in 10.0 mi Calm Calm - N/A   Clear
10:53 PM 37.9 °F - 26.1 °F 62% 30.43 in 8.0 mi Calm Calm - N/A   Clear
11:53 PM 36.0 °F - 26.1 °F 67% 30.42 in 10.0 mi Calm Calm - N/A   Clear